CAPE
1481 924 529 766 224 5 63 36 44 45 122 101 131 146 132 72 8 1 13 142 341 384 469 1050 1675 1617 1672 1832 2222 1995 2115 2326 2642 2828 2970 2883 2495 2416 2424 2505 2542 2372 2245 2329 2364 2262 2133 2154 2080
991 651 755 645 0 0 5 27 46 27 117 220 314 222 213 167 93 132 231 759 894 992 1059 1304 1993 2079 2125 2257 2492 2659 2519 2471 2930 2993 3139 2881 2623 2593 2453 2438 2345 2211 2180 2140 2060 2061 2022 2036 2087
627 624 717 519 0 5 14 6 17 53 367 408 258 238 265 165 194 237 271 809 1006 1054 1439 1764 2279 2399 2212 2303 2767 2675 2613 2657 2815 2839 2721 2809 2656 2219 2132 2067 1989 2085 2093 2078 2034 2003 2021 1969 2008
304 76 113 2 0 0 125 7 0 90 78 537 456 469 474 501 352 331 572 1027 1023 1221 1444 2175 2179 2065 2382 2333 2620 2621 2680 2805 2943 3069 2894 2502 2144 2255 2159 2038 2134 2171 2119 2059 1991 1968 1993 2053 2087
116 0 0 0 0 148 174 44 63 109 560 573 541 512 509 718 397 494 743 842 990 1329 1738 1907 2779 2534 2681 2452 2270 2381 2345 2585 2913 2726 2157 2105 2012 2156 2160 2132 2118 2060 2057 2053 2057 2069 2064 2109 2016
2 0 0 0 0 209 207 154 175 798 837 557 497 528 646 871 571 775 801 831 1308 1617 1702 1903 2480 2639 2586 2310 2136 2409 2060 2007 2161 2319 2364 2552 2428 2265 2251 2120 2017 1966 1857 1864 1817 2025 2146 2126 2193
0 0 1 0 0 200 242 508 963 818 563 578 544 533 930 979 884 931 739 874 1340 1804 1808 1672 1730 1997 2526 3003 2441 2124 2197 2082 2083 2472 2437 2569 2442 2340 2222 2167 2153 2027 1909 1867 2029 2339 2400 2301 2368
0 0 0 0 0 145 256 324 926 738 847 760 581 444 529 977 1166 1045 1063 1246 1785 2015 2070 1977 1821 1852 2149 2424 2534 2351 2233 2004 2012 2462 2351 2435 2320 2017 2134 2067 2354 2207 2266 2276 2250 2082 2259 2313 2215
0 0 0 0 0 5 219 435 957 983 850 507 602 572 583 1032 1118 973 1113 1298 1551 1987 1975 2067 2041 2028 2207 2388 2099 2414 2170 2313 2280 2336 2438 2779 1925 1597 727 810 1499 1381 2056 2157 2168 1795 1886 2049 1905
33 0 0 0 0 38 91 412 562 834 633 662 635 682 726 1056 1140 1061 1119 1256 1429 1616 1673 1843 2011 1967 2016 2598 2282 2163 1844 2062 2044 2157 2139 1735 1262 1155 904 1255 1420 762 1401 2195 1943 2017 2060 1854 975
5 44 0 2 5 0 38 180 258 662 594 538 780 802 795 955 1147 1121 1198 1202 1147 1401 1558 1546 1781 1905 1844 2231 1879 1823 1811 1714 1780 1843 1598 1615 1185 1175 858 644 630 733 1118 1398 1358 1647 1289 1078 800
0 2 2 1 167 3 48 137 482 356 446 488 912 952 958 1059 1183 1203 1296 1205 1186 1410 1357 1310 1665 1775 1752 1798 1823 1683 1777 1589 1681 1502 1370 1256 1071 680 419 752 840 1084 818 975 895 896 643 833 832
0 0 0 2 48 34 0 56 228 248 415 552 979 1173 1127 1191 1233 1265 1362 1268 1397 1469 1450 1286 1491 1548 1633 1513 1681 1574 1643 1592 1456 1513 1406 1338 1166 747 667 1083 1045 1070 843 807 804 678 634 516 569
0 2 18 15 6 0 15 217 318 408 456 465 1071 1205 1179 1231 1222 1306 1223 1142 1214 1427 1226 1305 1500 1426 1319 1303 1486 1366 1391 1359 1454 1297 1409 1441 1258 903 846 1044 632 594 747 628 851 709 629 529 432
2 0 30 23 26 0 35 61 397 360 395 457 961 963 1026 1018 1099 945 812 1009 1161 1008 1042 1412 1499 1258 1181 1091 1213 899 1132 915 1214 1214 1162 1185 1172 935 818 650 484 471 564 535 546 337 155 192 195
0 0 44 55 77 78 193 245 394 312 254 281 372 523 637 749 522 408 560 813 781 922 1200 1363 1499 1339 1121 1128 1249 1232 1289 1144 1100 1123 966 881 1013 1140 978 423 413 452 409 409 412 186 223 228 182
0 0 0 55 39 136 171 143 281 291 196 208 244 289 326 187 240 282 511 453 323 789 1140 1049 1112 1343 1119 1176 1261 1456 1363 1261 1200 1148 820 710 783 924 875 340 387 325 346 329 255 283 279 336 205
0 0 4 49 99 8 104 163 266 254 192 190 187 199 229 236 91 222 519 358 202 691 997 992 1027 1211 1111 1203 1366 1429 1368 1340 1241 1137 838 803 717 797 668 606 547 469 422 383 331 399 230 242 288
0 0 9 13 0 85 101 133 130 179 119 121 164 166 161 166 102 168 417 367 194 226 651 605 711 1065 1134 1184 1255 1280 1529 1267 1037 878 1064 1035 699 922 660 525 410 337 320 259 223 224 255 284 94
0 0 0 0 3 57 73 137 73 62 71 75 80 77 101 119 68 133 219 247 179 193 314 220 442 747 1196 1143 986 1052 1002 874 817 868 1192 965 761 727 615 469 421 353 165 43 12 8 17 63 195
0 0 0 0 0 78 119 121 167 122 120 94 120 124 119 82 74 80 121 129 257 227 266 312 311 817 1140 1154 974 1058 822 583 557 662 678 317 395 390 323 254 36 0 0 0 0 2 9 31 54
0 0 0 0 0 6 74 48 85 147 188 224 255 210 251 225 103 87 156 231 335 291 355 433 561 968 1085 1048 1216 1251 1176 507 23 132 132 4 0 0 0 0 0 0 0 0 0 37 5 0 3
0 0 0 0 0 11 17 14 48 63 143 181 213 152 359 371 173 131 181 277 396 448 675 699 890 1115 1257 1143 1325 1107 186 0 0 0 0 0 0 0 0 0 0 0 0 0 0 0 0 0 0
0 0 0 0 0 1 9 0 0 17 116 144 114 115 355 256 438 219 215 277 365 627 929 1132 1125 1276 1328 1142 932 630 2 0 0 0 0 0 0 0 0 0 0 0 0 0 0 0 0 0 0
0 0 0 0 0 0 0 0 0 0 71 89 69 25 173 212 571 487 473 385 414 737 1054 1328 1310 1306 1197 826 251 21 0 0 0 0 0 0 0 0 0 0 0 0 0 0 0 0 0 0 0
0 0 0 0 0 0 0 0 0 0 12 37 26 18 105 122 461 662 698 534 477 919 1120 1421 1462 1343 639 81 0 0 0 0 0 0 0 0 0 0 0 0 0 0 0 0 0 0 0 0 0
0 0 0 0 0 0 0 0 0 0 0 4 0 0 65 96 270 696 812 583 617 963 1141 1367 1593 1428 360 0 0 0 0 0 0 0 0 0 0 0 0 0 0 0 0 0 0 0 0 0 0
0 0 0 0 0 0 0 0 0 0 0 0 0 0 31 85 151 466 747 505 736 1087 1210 1265 1525 1459 476 0 0 0 0 0 0 0 0 0 0 0 0 0 0 0 0 0 0 0 0 0 0
0 0 0 0 0 0 0 0 0 0 0 0 0 0 6 66 110 198 386 381 401 991 1196 1283 1364 1222 457 6 0 0 0 0 0 0 0 0 0 0 0 0 0 0 0 0 0 0 0 0 0
0 0 0 0 0 0 0 0 0 0 0 0 0 0 0 0 60 133 179 274 271 549 897 1264 1401 975 477 55 0 0 0 0 0 0 0 0 0 0 0 0 3 0 0 0 0 0 0 0 0
CIN
-273 -334 -346 -212 -70 -13 -78 -82 -160 -84 -68 -87 -60 -74 -127 -126 -109 -75 -101 -60 -24 -16 -14 -3 0 0 0 0 0 0 0 0 0 0 0 0 0 0 -4 -3 -1 -7 -11 -8 -5 -6 -3 -1 0
-364 -331 -264 -173 0 0 -33 -120 -106 -85 -120 -91 -61 -90 -116 -61 -133 -87 -7 -5 -6 -5 -6 -2 0 0 0 0 0 0 0 0 0 0 0 0 0 0 0 0 -4 -8 -11 -10 -8 -7 -12 -5 -2
-413 -321 -167 -109 0 -49 -55 -80 -108 -106 -69 -47 -95 -85 -76 -61 -75 -58 -52 -3 -4 -5 -7 -1 0 0 0 0 0 0 0 0 0 0 0 0 0 0 -1 -4 -10 -10 -5 -3 -5 -14 -11 -9 -5
-427 -422 -350 -4 0 0 -97 -29 0 -120 -104 -62 -77 -66 -39 -28 -61 -68 -19 -4 -7 -2 -2 0 0 0 0 0 0 0 0 0 0 0 0 0 -4 0 0 -5 -5 -1 0 -5 -7 -9 -9 -4 -1
-552 0 0 0 0 -111 -121 -135 -137 -131 -68 -65 -80 -50 -43 -10 -73 -56 -13 -15 -18 -2 -1 -1 0 0 0 0 0 0 0 0 0 0 0 -3 -3 0 0 0 0 0 -2 -4 -2 -3 -2 -2 -2
-215 0 0 0 0 -111 -147 -150 -187 -90 -80 -109 -115 -106 -24 -16 -59 -32 -30 -36 -17 -2 -3 -1 0 0 0 0 0 0 0 -1 -1 0 0 0 0 0 0 0 0 -6 -5 -1 -1 -1 -2 -3 -1
-12 0 -56 0 0 -101 -123 -103 -114 -162 -129 -116 -137 -121 -18 -3 -28 -22 -43 -36 -12 -1 -2 -4 -3 -1 0 0 0 0 0 -2 -10 -1 -4 0 0 0 0 0 0 0 -1 0 0 0 0 -1 0
0 0 0 0 -1 -104 -124 -126 -112 -147 -120 -144 -164 -167 -115 -18 -11 -17 -21 -14 -1 -1 -2 -3 -5 -5 -4 0 0 0 -3 -8 -12 0 0 0 0 0 -3 -7 -4 0 0 0 0 0 -5 -2 -2
0 0 0 0 0 -148 -151 -133 -98 -132 -189 -136 -135 -188 -179 -38 -10 -14 -3 0 0 0 -3 -3 -5 -8 -6 -5 -2 -1 0 0 -4 -1 0 0 -16 -29 -108 -95 -32 -28 -9 -5 -9 -16 -20 -11 -16
-150 0 0 0 0 -159 -212 -164 -191 -164 -159 -175 -190 -183 -149 -64 -26 -27 -6 -5 0 0 -7 -21 -18 -18 -12 0 -5 -8 -14 -12 -17 -14 -11 -40 -81 -89 -102 -67 -43 -74 -19 -6 -15 -14 -13 -25 -75
-18 -100 0 -123 -141 0 -181 -179 -202 -203 -184 -244 -266 -241 -181 -113 -55 -51 -31 -61 -82 -41 -15 -25 -25 -19 -16 -7 -29 -40 -36 -51 -44 -36 -47 -55 -100 -111 -144 -165 -163 -124 -68 -53 -50 -31 -49 -62 -92
0 -136 -56 -42 -149 -21 -188 -228 -183 -203 -214 -230 -236 -218 -182 -132 -85 -76 -49 -50 -41 -29 -44 -52 -35 -29 -36 -42 -40 -58 -48 -67 -60 -70 -74 -91 -111 -157 -206 -129 -116 -86 -127 -81 -86 -88 -121 -93 -88
0 0 0 -74 -107 -184 0 -238 -190 -193 -200 -224 -185 -160 -161 -120 -103 -88 -79 -91 -71 -47 -42 -66 -59 -62 -60 -70 -60 -74 -73 -72 -89 -81 -89 -96 -106 -152 -147 -92 -94 -84 -106 -103 -98 -106 -105 -117 -98
0 -108 -165 -213 -229 0 -74 -212 -159 -192 -202 -221 -173 -162 -159 -135 -128 -97 -104 -123 -89 -67 -73 -77 -73 -88 -94 -89 -82 -99 -101 -106 -89 -105 -98 -93 -102 -128 -115 -91 -132 -124 -105 -114 -69 -77 -85 -99 -120
-125 -2 -145 -207 -231 0 -230 -192 -202 -226 -221 -218 -168 -167 -164 -161 -140 -168 -175 -131 -114 -122 -108 -81 -76 -106 -114 -119 -109 -151 -133 -153 -124 -130 -121 -119 -106 -108 -111 -130 -153 -130 -121 -115 -105 -139 -193 -173 -164
0 0 -130 -163 -181 -235 -223 -194 -271 -267 -272 -261 -244 -196 -184 -186 -235 -247 -207 -168 -165 -137 -107 -92 -62 -84 -107 -110 -97 -97 -107 -117 -115 -113 -119 -118 -97 -86 -100 -176 -161 -141 -143 -122 -111 -158 -143 -141 -154
0 0 0 -151 -220 -200 -249 -275 -285 -272 -264 -248 -237 -224 -216 -253 -228 -231 -210 -233 -271 -175 -116 -126 -96 -92 -110 -101 -96 -81 -83 -91 -94 -100 -131 -124 -114 -99 -107 -185 -156 -165 -133 -119 -143 -126 -132 -117 -156
0 0 -63 -179 -190 -257 -264 -261 -333 -300 -276 -252 -235 -228 -225 -270 -337 -261 -190 -223 -297 -192 -139 -119 -117 -105 -108 -102 -86 -81 -82 -71 -80 -91 -108 -98 -96 -105 -120 -115 -103 -102 -95 -99 -100 -60 -167 -171 -133
0 0 -193 -163 0 -224 -252 -290 -322 -338 -310 -296 -277 -253 -239 -249 -313 -300 -218 -206 -275 -282 -194 -194 -158 -112 -119 -115 -87 -71 -52 -70 -87 -96 -69 -68 -92 -75 -92 -94 -98 -125 -109 -136 -151 -151 -160 -198 -318
0 0 0 0 -217 -194 -289 -266 -294 -350 -344 -347 -345 -342 -332 -307 -375 -370 -293 -248 -279 -314 -288 -336 -235 -181 -157 -159 -164 -119 -100 -101 -93 -88 -60 -84 -90 -82 -82 -91 -91 -114 -208 -325 -365 -260 -323 -252 -235
0 0 0 0 -86 -216 -190 -198 -243 -280 -278 -297 -320 -328 -297 -350 -376 -371 -367 -356 -272 -320 -332 -321 -313 -220 -200 -187 -189 -146 -154 -172 -141 -121 -109 -182 -141 -144 -149 -166 -119 0 0 0 0 -322 -324 -270 -303
0 0 0 0 0 -56 -171 -104 -253 -290 -260 -281 -288 -336 -319 -335 -334 -368 -352 -350 -315 -318 -318 -302 -310 -250 -228 -214 -164 -145 -138 -188 -58 -315 -295 -55 0 0 0 0 0 0 0 0 0 -304 -379 0 -386
0 0 0 0 0 -145 -205 -108 -190 -298 -278 -340 -336 -366 -295 -323 -339 -355 -354 -365 -330 -300 -296 -303 -279 -244 -203 -205 -164 -188 -351 0 0 0 0 0 0 0 0 0 0 0 0 0 0 0 0 0 0
0 0 0 0 0 -52 -147 0 0 -217 -279 -311 -358 -388 -329 -364 -306 -327 -321 -318 -327 -300 -243 -262 -261 -224 -206 -221 -248 -288 -42 0 0 0 0 0 0 0 0 0 0 0 0 0 0 0 0 0 0
0 0 0 0 0 0 0 0 0 0 -246 -254 -315 -398 -382 -388 -302 -311 -314 -349 -354 -322 -278 -268 -279 -250 -249 -293 -416 -201 0 0 0 0 0 0 0 0 0 0 0 0 0 0 0 0 0 0 0
0 0 0 0 0 0 0 0 0 0 -334 -280 -291 -354 -352 -395 -361 -358 -377 -400 -385 -345 -326 -276 -285 -265 -392 -527 0 0 0 0 0 0 0 0 0 0 0 0 0 0 0 0 0 0 0 0 0
0 0 0 0 0 0 0 0 0 0 0 -306 0 0 -404 -372 -442 -394 -374 -406 -385 -330 -351 -346 -297 -290 -483 0 0 0 0 0 0 0 0 0 0 0 0 0 0 0 0 0 0 0 0 0 0
0 0 0 0 0 0 0 0 0 0 0 0 0 0 -402 -397 -470 -448 -396 -427 -405 -358 -365 -354 -302 -306 -478 0 0 0 0 0 0 0 0 0 0 0 0 0 0 0 0 0 0 0 0 0 0
0 0 0 0 0 0 0 0 0 0 0 0 0 0 -228 -416 -511 -501 -475 -442 -488 -408 -351 -376 -340 -349 -492 -615 0 0 0 0 0 0 0 0 0 0 0 0 0 0 0 0 0 0 0 0 0
0 0 0 0 0 0 0 0 0 0 0 0 0 -26 0 -22 -503 -483 -484 -463 -472 -500 -419 -383 -363 -411 -510 -696 0 0 0 0 0 0 0 0 0 0 0 0 -327 0 0 0 0 0 0 0 0
Wind_Speed
7 4 2 1 3 6 1 3 2 4 4 1 4 9 10 9 3 4 2 6 7 5 6 12 17 18 19 18 18 18 18 17 15 15 15 15 15 14 14 11 11 10 9 9 8 6 5 6 6
7 4 2 1 5 4 3 1 3 3 7 13 10 8 10 6 6 10 6 8 9 6 5 9 16 17 18 16 17 17 18 17 15 14 14 15 14 13 12 11 10 9 8 8 6 4 4 3 4
4 2 2 2 3 4 4 3 6 10 10 4 6 9 4 4 10 10 9 11 8 6 5 10 15 16 18 17 15 16 16 16 15 15 14 13 13 12 11 11 9 8 7 5 5 3 2 2 2
2 3 2 4 1 3 4 6 10 10 3 8 14 11 5 7 8 7 12 12 10 6 6 12 16 16 17 17 15 16 15 15 14 13 13 13 13 11 9 9 8 6 5 4 3 2 1 1 0
3 2 4 5 4 3 5 11 11 7 5 10 5 7 6 3 12 15 12 11 10 6 7 9 14 15 15 15 15 14 13 13 12 12 12 12 11 10 8 7 6 5 4 4 3 3 3 3 2
1 2 6 2 4 4 5 9 12 6 8 11 10 8 4 12 14 12 11 10 9 7 5 7 13 14 14 14 14 12 12 12 11 11 11 10 10 9 7 6 6 5 4 4 4 5 4 4 3
4 4 5 4 6 5 6 8 5 11 10 8 10 7 7 10 12 11 10 9 8 6 6 5 6 11 15 14 14 14 13 13 12 11 10 9 9 8 7 7 5 5 5 5 6 5 5 5 5
1 5 4 1 8 6 6 3 7 9 8 13 11 7 11 14 14 11 10 8 7 5 5 5 5 6 6 7 16 16 14 13 12 10 9 8 8 7 7 3 4 7 8 6 6 6 5 5 5
2 6 3 5 6 5 10 6 7 5 11 4 5 8 12 18 15 11 9 7 6 6 6 7 6 5 5 4 6 11 13 12 11 10 10 7 2 3 2 5 6 6 8 7 7 6 5 5 3
5 5 7 7 7 9 15 14 15 7 12 3 11 15 17 19 15 14 12 11 10 9 5 5 6 6 5 6 5 5 4 4 3 4 4 3 4 3 4 3 7 6 8 8 4 5 5 5 3
6 8 6 7 7 16 14 10 3 17 7 11 24 21 21 17 15 15 14 14 15 12 8 7 6 6 6 5 4 3 3 2 3 4 4 4 2 2 0 1 1 1 5 2 4 3 3 4 3
4 13 7 6 7 8 15 8 7 7 4 17 19 22 20 18 16 14 14 11 9 10 10 8 7 7 7 4 4 4 3 3 3 4 5 4 2 3 3 2 2 1 0 0 2 2 4 5 5
8 5 10 10 9 10 7 6 6 5 12 16 18 20 20 18 17 15 16 14 12 11 11 10 9 9 8 4 4 4 4 4 4 4 5 4 4 4 3 3 2 1 1 1 1 1 2 4 4
3 7 9 8 8 5 12 6 6 7 15 18 20 20 19 18 18 14 12 12 13 12 12 11 11 9 6 6 6 4 4 4 4 4 5 6 4 4 4 3 3 2 1 2 1 2 2 3 3
12 8 9 4 4 6 13 4 6 16 18 18 19 18 18 18 16 16 16 14 15 12 12 13 12 8 8 7 6 4 5 4 5 5 6 6 5 5 5 3 2 3 2 3 2 2 2 3 3
8 5 10 4 5 8 7 4 12 16 19 18 18 16 16 17 18 15 15 14 12 11 11 11 10 9 7 6 5 4 4 4 4 4 4 4 5 6 5 3 3 3 2 2 2 2 3 3 3
6 12 3 5 9 5 2 5 15 16 16 16 15 16 15 13 13 12 15 14 12 13 12 11 9 9 8 6 5 5 6 4 3 2 2 4 5 6 4 3 3 3 1 2 2 2 1 3 4
12 7 9 14 16 7 6 6 18 18 17 18 16 14 15 13 15 16 15 13 11 11 11 11 8 7 7 5 4 2 2 2 2 3 3 4 2 3 4 3 3 3 2 1 1 2 1 2 3
10 6 15 10 7 6 6 10 20 19 17 16 16 15 14 15 13 14 14 13 10 8 9 7 8 8 5 3 3 1 3 2 3 3 4 5 4 5 4 3 2 3 2 2 2 2 2 2 1
7 6 8 3 8 6 4 7 18 20 22 20 19 17 18 15 11 13 14 12 11 12 11 9 10 8 7 4 3 3 2 2 1 1 3 4 5 5 4 4 2 2 1 1 0 1 0 1 1
5 7 6 8 7 6 10 4 9 12 7 13 14 15 14 17 17 15 15 15 12 11 11 11 11 8 7 7 3 2 2 1 1 0 2 3 5 5 4 4 4 3 3 3 2 2 2 1 2
4 9 8 10 15 9 7 6 9 12 14 12 14 13 16 17 17 17 17 15 14 13 11 10 9 8 7 7 5 5 4 4 3 3 3 4 4 5 5 4 4 4 3 3 2 2 1 2 1
11 8 9 9 13 6 5 5 7 11 10 21 19 17 18 17 18 19 20 20 18 14 12 10 9 8 7 7 7 5 4 3 2 2 5 3 1 2 4 5 6 4 3 3 3 3 3 2 2
2 4 8 6 5 5 12 8 5 13 27 26 17 17 19 18 19 18 18 15 14 12 12 10 11 10 9 9 8 9 8 6 4 3 4 3 1 2 4 5 5 4 3 4 3 2 3 4 3
6 8 3 4 2 7 8 4 11 20 25 26 26 21 20 18 18 18 18 16 15 16 16 13 13 13 11 10 8 8 9 8 8 5 5 5 3 3 5 5 4 3 4 3 2 3 3 3 3
7 11 9 8 5 7 6 8 11 17 22 22 17 20 17 19 19 21 21 19 19 19 18 17 15 14 11 10 9 8 8 5 5 6 4 4 4 4 5 5 5 5 4 2 2 2 3 3 4
4 5 10 6 1 4 5 7 9 6 12 17 19 15 19 20 20 22 19 20 19 18 20 20 18 16 14 13 10 8 7 8 7 7 6 5 5 4 6 6 6 5 4 4 2 2 3 4 4
12 8 2 2 6 5 4 4 7 7 8 11 14 17 19 18 17 17 19 19 19 20 19 18 17 18 15 14 12 10 10 8 7 6 7 7 6 6 6 6 6 5 5 4 3 3 3 3 3
3 3 4 6 4 9 5 8 9 8 9 18 20 22 19 17 18 18 19 19 20 18 17 17 15 16 15 15 12 11 9 8 8 7 7 7 6 7 7 7 6 6 6 5 4 5 5 5 5
7 10 10 7 7 1 5 9 5 9 9 14 16 15 10 13 16 17 19 19 17 18 17 18 16 17 16 14 13 12 9 9 8 7 7 7 8 7 7 6 6 6 6 5 6 6 5 6 6
Wind_Direction
146 167 133 58 59 74 201 265 68 104 92 334 64 95 107 36 57 143 82 139 137 133 137 132 141 140 135 131 126 131 133 131 125 126 126 125 124 122 124 131 127 115 115 117 125 132 122 102 93
155 163 60 39 82 100 272 153 105 89 105 122 95 81 48 72 60 110 105 153 137 136 123 138 140 135 131 130 131 130 128 129 132 131 133 131 133 133 132 130 124 132 136 134 135 145 121 108 100
140 353 94 92 92 166 153 209 153 106 140 91 106 82 61 81 107 139 136 142 133 121 123 138 134 136 136 135 131 128 136 139 144 141 141 141 136 137 137 135 136 137 139 141 154 155 141 134 110
139 23 342 74 64 1 146 148 129 129 121 81 109 79 87 112 141 133 142 137 127 127 131 137 141 143 139 139 142 143 147 149 148 148 147 147 140 141 143 137 137 153 154 164 165 191 199 275 306
2 84 49 53 340 38 86 136 138 128 87 100 89 100 89 57 111 129 138 136 138 137 139 141 148 148 146 150 149 150 148 149 143 147 151 149 143 152 147 146 158 173 182 199 214 237 268 282 288
2 122 60 53 7 64 101 144 146 108 98 118 102 97 82 128 133 143 141 141 141 134 132 148 148 152 155 157 159 157 153 149 149 157 159 153 157 158 157 169 186 204 210 239 258 270 270 280 285
200 95 146 139 117 152 177 151 143 137 139 127 143 95 121 141 148 144 141 136 134 138 139 134 147 160 163 168 171 169 170 166 169 170 169 167 165 170 183 198 216 234 231 258 282 294 299 290 294
250 86 94 81 165 181 169 109 153 135 115 119 143 150 162 164 152 139 132 126 132 142 154 156 164 164 167 172 177 179 179 175 183 180 179 181 191 196 207 210 246 249 256 259 283 293 297 301 310
135 52 151 171 174 159 162 137 185 103 134 152 166 137 144 151 144 132 126 132 145 168 171 165 175 168 172 174 189 182 181 180 189 190 189 196 195 233 229 265 258 263 275 275 276 282 304 314 339
90 126 221 183 173 171 178 161 162 129 165 93 112 115 143 151 151 149 158 164 170 174 184 175 172 173 167 187 195 174 195 187 193 193 197 181 209 225 244 291 288 265 275 288 277 292 309 352 341
196 207 168 186 180 165 162 168 145 145 195 181 149 146 156 162 164 163 172 176 179 176 176 187 183 175 181 198 179 187 192 200 189 207 208 211 219 221 122 286 346 318 293 309 332 332 339 328 345
162 234 167 167 143 138 155 130 107 158 243 158 149 150 158 168 173 174 174 176 174 177 185 182 191 187 200 201 182 187 188 192 199 202 207 198 206 229 250 233 260 287 327 134 343 352 331 322 328
197 185 171 141 113 129 117 119 130 193 136 143 149 156 165 175 179 184 184 179 178 179 188 190 190 195 202 191 191 190 201 199 217 209 211 197 205 215 216 231 231 208 236 278 309 348 322 308 315
209 154 123 111 143 135 126 126 99 160 144 149 158 165 173 179 183 186 182 183 178 183 187 190 198 199 180 196 192 204 199 223 197 214 218 204 206 216 210 225 239 270 231 294 258 259 292 306 307
137 93 78 78 175 121 120 69 153 151 157 153 164 172 177 187 181 185 186 185 182 185 180 188 197 191 185 196 201 195 208 199 209 215 218 210 203 218 207 227 262 248 244 259 276 293 308 310 307
91 36 131 221 194 181 87 185 158 163 164 168 169 178 184 192 187 186 183 188 189 177 177 184 192 189 189 188 190 189 195 197 197 207 200 199 212 206 204 208 230 242 242 255 256 276 293 285 289
43 168 191 169 214 139 111 138 175 170 173 176 182 183 189 190 198 189 187 182 181 185 182 181 185 180 182 190 198 200 195 206 210 202 214 217 231 232 199 189 233 231 214 233 244 274 238 309 314
183 179 197 172 201 184 206 166 163 176 173 183 191 198 200 193 195 190 190 185 178 183 182 184 184 180 179 182 185 211 205 223 230 231 210 213 197 128 158 181 195 179 157 262 258 277 299 260 280
139 177 202 208 163 121 192 152 174 179 185 190 193 198 205 209 196 189 188 187 175 181 179 179 175 196 166 161 154 184 216 207 224 221 225 201 204 168 165 173 154 145 169 212 237 242 247 296 346
139 179 200 326 159 95 170 175 179 184 194 192 190 196 199 201 180 182 184 186 182 180 189 183 195 190 191 166 164 158 168 218 205 146 196 191 166 163 160 166 160 156 134 54 194 204 180 270 311
170 174 185 182 156 43 113 5 207 216 219 210 205 206 201 188 184 184 181 185 186 185 184 189 193 190 189 181 133 104 77 47 38 159 146 184 176 161 146 155 156 160 145 183 191 192 161 149 320
198 203 208 151 162 185 173 214 229 211 219 221 215 202 201 192 190 184 182 184 185 192 189 191 191 184 193 175 165 165 172 189 224 188 168 182 182 168 161 174 170 166 172 176 175 164 159 134 164
228 151 195 177 183 118 207 102 252 159 222 229 217 210 202 194 190 188 188 185 187 181 185 190 183 187 185 181 178 173 174 194 176 134 150 172 190 183 194 169 160 172 184 191 181 182 183 181 151
205 98 39 50 121 194 199 160 238 181 214 224 218 212 199 193 194 192 190 186 186 185 182 181 180 195 189 183 186 178 182 168 150 161 174 193 207 283 197 163 171 180 191 192 202 202 193 188 178
97 79 333 342 1 214 194 139 229 210 215 215 206 205 199 190 190 190 187 185 185 187 190 187 186 198 192 187 183 184 175 167 172 178 179 173 168 190 169 165 179 186 206 204 210 211 222 209 186
178 159 161 187 203 227 128 203 242 210 221 215 212 207 192 192 193 193 190 187 191 192 193 189 189 197 187 184 186 178 167 170 180 181 185 183 186 179 173 185 185 219 211 226 236 225 227 214 224
189 156 196 137 348 98 217 277 328 298 213 203 202 188 200 196 192 194 190 192 194 197 199 194 193 193 185 186 181 180 172 174 175 192 171 178 190 186 189 189 198 219 229 215 230 255 244 221 222
192 166 91 352 164 234 251 242 221 223 206 203 189 195 202 196 193 192 193 193 197 201 202 197 197 196 186 183 184 179 181 176 185 174 183 177 184 189 181 192 206 215 230 237 235 269 268 236 245
140 181 77 125 143 170 221 258 213 226 192 186 195 201 197 188 190 192 196 198 200 201 197 196 194 190 187 185 177 175 176 171 176 177 183 189 181 187 192 198 207 219 229 241 240 250 260 237 248
181 208 179 196 247 200 166 260 232 222 200 187 199 193 190 189 188 193 196 199 198 202 197 197 193 191 191 185 178 180 170 171 178 193 195 185 194 191 200 196 206 220 231 241 237 252 249 233 241